GW0881 Weather Reports


time (UTC)temp
F
wind
direction
speed
knots
gust
knots
rain 1hr
in
rain 24hr
in
rain mn
in
humidity
%
barometer
mb
20240518193636 78 340 4.3 6.1 0.00 0.07 0.07 51 1004.8
20240518193135 77 9 4.3 7.0 0.00 0.07 0.07 53 1004.7
20240518192634 77 268 2.6 2.6 0.00 0.07 0.07 53 1004.6
20240518192132 77 322 3.5 4.3 0.00 0.07 0.07 53 1004.8
20240518191630 77 297 5.2 6.1 0.00 0.07 0.07 51 1004.5
20240518191129 78 261 3.5 4.3 0.00 0.07 0.07 54 1004.4
20240518190624 77 253 1.7 1.7 0.00 0.07 0.07 55 1004.4
20240518190123 77 302 4.3 6.1 0.00 0.07 0.07 52 1004.4
20240518185622 78 265 4.3 5.2 0.00 0.07 0.07 53 1004.3
20240518185119 77 295 2.6 2.6 0.00 0.07 0.07 53 1004.2
20240518184618 77 274 2.6 2.6 0.00 0.07 0.07 53 1004.2
20240518184114 78 295 5.2 6.1 0.00 0.07 0.07 52 1004.1
20240518183558 78 299 2.6 2.6 0.00 0.07 0.07 56 1004.2
20240518183052 78 294 4.3 5.2 0.00 0.07 0.07 54 1003.8
20240518182551 78 294 2.6 4.3 0.00 0.07 0.07 54 1003.8
20240518182047 77 328 4.3 6.1 0.00 0.07 0.07 53 1003.9
20240518181544 77 9 6.1 7.8 0.00 0.07 0.07 55 1003.8
20240518181036 76 281 2.6 2.6 0.00 0.07 0.07 55 1003.7
20240518180525 76 299 2.6 4.3 0.00 0.07 0.07 57 1003.7
20240518180024 77 328 3.5 4.3 0.00 0.07 0.07 57 1003.6
20240518175519 77 56 2.6 4.3 0.00 0.07 0.07 57 1003.6
20240518175019 78 341 2.6 2.6 0.00 0.07 0.07 57 1003.3
20240518174518 77 302 2.6 2.6 0.00 0.07 0.07 59 1003.3
20240518174017 77 332 2.6 2.6 0.00 0.07 0.07 55 1003.2
20240518173517 77 239 2.6 4.3 0.00 0.07 0.07 58 1003.2
20240518173016 77 281 4.3 5.2 0.00 0.07 0.07 57 1003.2
20240518172516 77 240 2.6 2.6 0.00 0.07 0.07 60 1003.1
20240518172016 77 265 3.5 4.3 0.00 0.07 0.07 62 1003.2
20240518171514 76 198 2.6 2.6 0.00 0.07 0.07 62 1003.1
20240518171013 76 266 2.6 2.6 0.00 0.07 0.07 61 1002.9
20240518170510 77 241 2.6 2.6 0.00 0.07 0.07 63 1003.0
20240518170010 76 283 2.6 2.6 0.00 0.07 0.07 62 1002.9
20240518165509 76 283 2.6 2.6 0.00 0.07 0.07 63 1002.8
20240518165009 75 244 1.7 1.7 0.00 0.07 0.07 63 1002.8
20240518164508 75 287 3.5 4.3 0.00 0.07 0.07 62 1002.8
20240518164008 75 266 1.7 1.7 0.00 0.07 0.07 63 1002.7
20240518163506 75 262 1.7 1.7 0.00 0.07 0.07 60 1002.4
20240518163006 76 274 2.6 4.3 0.00 0.07 0.07 62 1002.7
20240518162506 75 266 1.7 1.7 0.00 0.07 0.07 65 1002.4
20240518162005 75 257 1.7 1.7 0.00 0.07 0.07 64 1002.3
20240518161504 75 255 1.7 1.7 0.00 0.07 0.07 64 1002.1
20240518161003 75 233 2.6 4.3 0.00 0.07 0.07 64 1002.0
20240518160501 75 254 1.7 1.7 0.00 0.07 0.07 63 1002.0
20240518160000 75 254 0.9 1.7 0.00 0.07 0.07 64 1002.0
20240518155500 75 235 2.6 2.6 0.00 0.07 0.07 65 1002.1
20240518155000 75 228 0.9 1.7 0.00 0.07 0.07 67 1001.9
20240518154459 74 229 0.9 0.9 0.00 0.07 0.07 66 1001.8
20240518153958 74 221 0.9 0.9 0.00 0.07 0.07 69 1001.8
20240518153458 74 215 0.9 0.9 0.00 0.07 0.07 67 1001.8
20240518152956 73 199 2.6 2.6 0.00 0.07 0.07 67 1002.0
20240518152455 73 247 2.6 2.6 0.00 0.07 0.07 66 1001.6
20240518151954 73 251 1.7 1.7 0.00 0.07 0.07 68 1001.8
20240518151452 73 230 0.9 0.9 0.00 0.07 0.07 69 1001.8
20240518150952 73 225 0.0 0.0 0.00 0.07 0.07 70 1001.5
20240518150449 73 226 0.9 0.9 0.00 0.07 0.07 68 1001.5
20240518145948 72 200 2.6 2.6 0.00 0.07 0.07 69 1001.4
20240518145448 72 229 0.9 0.9 0.00 0.07 0.07 68 1001.4
20240518144945 72 216 0.0 0.9 0.00 0.07 0.07 70 1001.5
20240518144444 72 215 0.9 0.9 0.00 0.07 0.07 71 1001.4
20240518143943 71 211 0.9 1.7 0.00 0.07 0.07 71 1001.2
20240518143442 71 228 1.7 1.7 0.00 0.07 0.07 71 1001.5
20240518142942 71 220 0.9 1.7 0.00 0.07 0.07 71 1001.5
20240518142440 71 219 1.7 1.7 0.00 0.07 0.07 72 1001.4
20240518141940 71 216 1.7 1.7 0.00 0.07 0.07 72 1001.3
20240518141438 70 219 2.6 2.6 0.00 0.07 0.07 72 1001.3
20240518140937 70 232 0.9 0.9 0.00 0.07 0.07 73 1001.4
20240518140437 69 208 2.6 2.6 0.00 0.07 0.07 75 1001.4
20240518135936 69 222 2.6 2.6 0.00 0.07 0.07 76 1001.5
20240518135434 68 205 0.0 0.0 0.00 0.07 0.07 78 1001.3
20240518134934 68 213 0.0 0.0 0.00 0.07 0.07 79 1001.3
20240518134433 68 204 0.9 0.9 0.00 0.07 0.07 77 1001.4
20240518133933 68 197 0.9 0.9 0.00 0.07 0.07 77 1001.3
20240518133432 68 197 0.0 0.9 0.00 0.07 0.07 78 1001.5
20240518132931 67 206 0.9 0.9 0.00 0.07 0.07 78 1001.4
20240518132430 67 205 0.9 0.9 0.00 0.07 0.07 79 1001.3
20240518131929 66 207 0.9 0.9 0.00 0.07 0.07 80 1001.2
20240518131428 65 233 0.9 1.7 0.00 0.07 0.07 82 1001.3
20240518130926 65 195 0.0 0.9 0.00 0.07 0.07 83 1001.5
20240518130425 65 216 0.0 0.0 0.00 0.07 0.07 83 1001.5
20240518125923 65 207 0.0 0.9 0.00 0.07 0.07 82 1001.6
20240518125422 64 206 0.0 0.0 0.00 0.07 0.07 82 1001.7
20240518124921 64 208 0.0 0.0 0.00 0.07 0.07 83 1001.6
20240518124420 64 208 0.0 0.0 0.00 0.07 0.07 84 1001.5
20240518123920 64 207 0.0 0.0 0.00 0.07 0.07 87 1001.5
20240518123418 63 209 0.0 0.0 0.00 0.07 0.07 87 1001.1
20240518122917 63 214 0.0 0.0 0.00 0.07 0.07 88 1001.2
20240518122415 62 212 0.0 0.0 0.00 0.07 0.07 88 1001.4
20240518121914 62 205 0.0 0.0 0.00 0.07 0.07 88 1001.2
20240518121413 62 210 0.0 0.0 0.00 0.07 0.07 89 1001.1
20240518120911 61 209 0.0 0.0 0.00 0.07 0.07 89 1001.0
20240518120411 61 210 0.0 0.0 0.00 0.07 0.07 90 1001.1
20240518115911 60 207 0.0 0.0 0.00 0.07 0.07 91 1000.9
20240518115409 60 203 0.0 0.0 0.00 0.07 0.07 92 1001.0
20240518114909 60 210 0.0 0.0 0.00 0.07 0.07 92 1000.8
20240518114407 60 213 0.0 0.0 0.00 0.07 0.07 92 1000.9
20240518113907 60 209 0.0 0.0 0.00 0.07 0.07 92 1000.8
20240518113406 60 205 0.0 0.0 0.00 0.07 0.07 92 1000.9
20240518112906 60 209 0.0 0.0 0.00 0.07 0.07 91 1000.8
20240518112405 60 213 0.0 0.0 0.00 0.07 0.07 91 1000.6
20240518111904 60 209 0.0 0.0 0.00 0.07 0.07 91 1000.6
20240518111404 60 197 0.0 0.9 0.00 0.07 0.07 90 1000.6
20240518110903 60 214 0.0 0.0 0.00 0.07 0.07 90 1000.4
20240518110403 61 211 0.0 0.0 0.00 0.07 0.07 89 1000.3
20240518105904 61 208 0.0 0.9 0.07 0.07 0.07 89 1000.1
20240518105402 61 206 0.9 0.9 0.07 0.07 0.07 89 1000.3
20240518104901 61 198 0.9 1.7 0.07 0.07 0.07 88 1000.2
20240518104401 61 181 0.9 0.9 0.00 0.06 0.06 88 1000.4
20240518103901 62 196 0.9 0.9 0.04 0.06 0.06 88 1000.3
20240518103401 62 199 0.9 1.7 0.16 0.06 0.06 87 1000.2
20240518102859 62 206 1.7 1.7 0.16 0.06 0.06 86 1000.3
20240518102357 63 229 1.7 1.7 0.07 0.03 0.03 83 1000.4
20240518101856 64 177 2.6 4.3 0.00 0.02 0.02 80 1000.2
20240518101355 64 186 0.9 1.7 0.00 0.02 0.02 78 1000.5
20240518100855 64 224 0.9 0.9 0.00 0.02 0.02 79 1000.2
20240518100354 64 202 2.6 4.3 0.00 0.02 0.02 79 1000.3
20240518095852 64 220 2.6 2.6 0.00 0.02 0.02 77 1000.3
20240518095352 66 197 2.6 2.6 0.00 0.02 0.02 75 1000.3
20240518094850 66 224 0.0 0.9 0.00 0.02 0.02 71 1000.2
20240518094350 66 206 0.9 1.7 0.00 0.02 0.02 70 1000.1
20240518093849 66 218 2.6 2.6 0.00 0.02 0.02 71 1000.2
20240518093348 66 206 0.9 1.7 0.00 0.02 0.02 71 1000.3
20240518092846 67 212 0.9 0.9 0.00 0.02 0.02 70 1000.1
20240518092345 66 224 2.6 4.3 0.00 0.02 0.02 70 1000.3
20240518091843 66 214 2.6 4.3 0.00 0.02 0.02 71 1000.2
20240518091342 67 200 0.9 0.9 0.00 0.02 0.02 70 1000.3
20240518090839 67 187 0.9 0.9 0.00 0.02 0.02 71 1000.3
20240518090338 67 202 2.6 4.3 0.00 0.02 0.02 69 1000.3
20240518085836 67 199 2.6 4.3 0.00 0.02 0.02 69 1000.3
20240518085336 67 216 2.6 2.6 0.00 0.02 0.02 69 1000.1
20240518084834 67 186 0.9 1.7 0.00 0.02 0.02 69 1000.3
20240518084333 67 209 2.6 2.6 0.00 0.02 0.02 69 1000.2
20240518083831 67 200 0.9 1.7 0.00 0.02 0.02 69 1000.3
20240518083330 67 188 2.6 2.6 0.00 0.02 0.02 68 1000.4
20240518082829 67 193 0.9 1.7 0.00 0.02 0.02 69 1000.4
20240518082327 68 199 0.9 0.9 0.00 0.02 0.02 68 1000.3
20240518081824 68 197 0.9 2.6 0.00 0.02 0.02 67 1000.3
20240518081324 68 208 0.9 1.7 0.00 0.02 0.02 67 1000.3
20240518080817 68 210 1.7 1.7 0.00 0.02 0.02 66 1000.1
20240518080316 68 183 1.7 1.7 0.00 0.02 0.02 66 1000.4
20240518075815 69 211 3.5 4.3 0.00 0.02 0.02 66 1000.4
20240518075315 69 228 1.7 2.6 0.00 0.02 0.02 66 1000.3
20240518074813 69 206 1.7 1.7 0.00 0.02 0.02 65 1000.4
20240518074312 69 207 2.6 2.6 0.00 0.02 0.02 66 1000.4
20240518073810 69 206 4.3 5.2 0.00 0.02 0.02 65 1000.3
20240518073311 68 205 1.7 1.7 0.00 0.02 0.02 67 1000.4
20240518072809 67 222 2.6 4.3 0.00 0.02 0.02 70 1000.3
20240518072307 65 195 2.6 4.3 0.00 0.02 0.02 77 1000.2
20240518071806 64 207 2.6 2.6 0.04 0.02 0.02 80 1000.2
20240518071305 63 209 2.6 4.3 0.04 0.02 0.02 82 1000.1
20240518070803 63 208 1.7 2.6 0.07 0.02 0.02 83 1000.2
20240518070302 64 213 0.9 1.7 0.11 0.02 0.02 83 1000.0
20240518065801 64 218 0.9 0.9 0.04 0.00 0.00 80 999.9
20240518065300 66 217 0.9 0.9 0.00 0.00 0.00 77 1000.2
20240518064758 66 216 2.6 2.6 0.00 0.00 0.00 74 1000.3
20240518064257 66 203 1.7 1.7 0.00 0.00 0.00 74 1000.5
20240518063757 65 200 0.9 1.7 0.00 0.00 0.00 75 1000.3
20240518063255 65 204 0.9 1.7 0.00 0.00 0.00 75 1000.4
20240518062753 65 192 0.9 0.9 0.00 0.00 0.00 75 1000.5
20240518062252 65 199 0.9 1.7 0.00 0.00 0.00 75 1000.5
20240518061752 65 221 0.9 0.9 0.00 0.00 0.00 76 1000.4
20240518061251 65 206 0.9 0.9 0.00 0.00 0.00 76 1000.2
20240518060750 65 197 1.7 1.7 0.00 0.00 0.00 76 1000.3
20240518060249 65 202 0.9 1.7 0.00 0.00 0.00 77 1000.3
20240518055749 65 210 0.9 1.7 0.00 0.00 0.00 77 1000.2
20240518055248 65 221 1.7 2.6 0.00 0.00 0.00 77 1000.3
20240518054746 65 190 0.9 0.9 0.00 0.00 0.00 77 1000.5
20240518054244 65 197 0.9 0.9 0.00 0.00 0.00 77 1000.6
20240518053744 65 200 0.9 0.9 0.00 0.00 0.00 77 1000.6
20240518053243 65 212 1.7 2.6 0.00 0.00 0.00 77 1000.5
20240518052743 64 208 1.7 1.7 0.00 0.00 0.00 78 1000.5
20240518052241 65 203 0.9 1.7 0.00 0.00 0.00 78 1000.5
20240518051740 64 184 0.9 0.9 0.00 0.00 0.00 78 1000.7
20240518051239 64 213 1.7 1.7 0.00 0.00 0.00 79 1000.7
20240518050736 65 201 0.9 0.9 0.00 0.00 0.00 79 1001.0
20240518050235 65 185 1.7 2.6 0.00 0.00 0.00 78 1000.7
20240518045734 65 209 1.7 2.6 0.00 0.25 0.25 78 1000.6
20240518045233 65 190 1.7 1.7 0.00 0.25 0.25 78 1000.8
20240518044733 65 207 0.9 0.9 0.00 0.25 0.25 77 1000.7
20240518044231 65 207 0.9 0.9 0.00 0.25 0.25 77 1000.9
20240518043729 65 229 1.7 1.7 0.00 0.25 0.25 77 1000.7
20240518043228 65 195 1.7 1.7 0.00 0.25 0.25 77 1000.6
20240518042726 65 207 0.9 0.9 0.00 0.25 0.25 78 1000.7
20240518042226 64 206 1.7 1.7 0.00 0.25 0.25 79 1000.6
20240518041725 63 200 0.9 0.9 0.00 0.25 0.25 81 1000.8
20240518041223 62 208 0.9 0.9 0.00 0.25 0.25 84 1001.0
20240518040723 63 206 0.0 0.0 0.00 0.25 0.25 86 1000.9
20240518040221 63 214 0.0 0.9 0.00 0.25 0.25 86 1000.8
20240518035720 63 200 0.9 0.9 0.00 0.25 0.25 86 1000.7
20240518035218 63 206 0.0 0.9 0.00 0.25 0.25 86 1000.9
20240518034718 63 207 0.0 0.0 0.00 0.25 0.25 85 1001.0
20240518034216 63 196 0.0 0.9 0.00 0.25 0.25 85 1000.7
20240518033716 63 199 0.9 0.9 0.00 0.25 0.25 84 1001.0
20240518033215 62 211 0.9 0.9 0.00 0.25 0.25 87 1000.9
20240518032714 63 204 0.9 0.9 0.11 0.25 0.25 87 1000.8
20240518032212 63 208 1.7 1.7 0.18 0.25 0.25 87 1000.9
20240518031711 64 210 2.6 4.3 0.11 0.24 0.24 84 1000.9
20240518031210 64 167 0.9 1.7 0.00 0.22 0.22 82 1000.7
20240518030706 64 207 2.6 2.6 0.00 0.22 0.22 82 1000.8
20240518030204 64 194 0.9 1.7 0.00 0.22 0.22 82 1000.7
20240518025703 64 191 1.7 1.7 0.00 0.22 0.22 82 1000.7
20240518025201 64 200 1.7 1.7 0.00 0.22 0.22 82 1000.9
20240518024700 64 211 1.7 1.7 0.00 0.22 0.22 82 1001.0
20240518024158 64 207 0.9 1.7 0.00 0.22 0.22 83 1000.8
20240518023657 64 207 0.9 0.9 0.00 0.22 0.22 84 1000.8
20240518023157 64 205 0.9 1.7 0.00 0.22 0.22 83 1000.7
20240518022656 64 220 0.9 1.7 0.00 0.22 0.22 83 1000.7
20240518022156 64 204 1.7 2.6 0.00 0.22 0.22 83 1000.8
20240518021656 64 198 1.7 1.7 0.00 0.22 0.22 83 1000.9
20240518021157 64 193 0.9 1.7 0.00 0.22 0.22 82 1000.9
20240518020655 64 204 1.7 2.6 0.00 0.22 0.22 83 1001.1
20240518020153 65 213 0.9 1.7 0.00 0.22 0.22 82 1001.1
20240518015652 65 199 0.9 1.7 0.00 0.22 0.22 82 1000.9
20240518015150 65 194 2.6 2.6 0.00 0.22 0.22 81 1001.0
20240518014650 65 201 2.6 2.6 0.00 0.22 0.22 80 1001.3
20240518014149 65 207 4.3 6.1 0.00 0.22 0.22 80 1001.2
20240518013649 66 200 3.5 5.2 0.00 0.22 0.22 79 1001.2
20240518013147 65 217 2.6 2.6 0.00 0.22 0.22 81 1001.2
20240518012645 65 222 1.7 2.6 0.00 0.22 0.22 81 1001.2
20240518012144 65 190 1.7 1.7 0.00 0.22 0.22 82 1001.3
20240518011643 64 204 2.6 2.6 0.00 0.22 0.22 85 1001.2
20240518011141 63 185 0.9 1.7 0.07 0.22 0.22 88 1001.0
20240518010640 63 204 1.7 2.6 0.07 0.22 0.22 90 1001.5
20240518010139 63 212 2.6 2.6 0.00 0.20 0.20 89 1002.1
20240518005638 63 220 0.9 1.7 0.00 0.20 0.20 89 1002.6
20240518005136 63 220 1.7 1.7 0.04 0.20 0.20 88 1002.3
20240518004634 64 235 0.9 0.9 0.04 0.20 0.20 87 1002.3
20240518004133 64 206 2.6 5.2 0.00 0.20 0.20 84 1001.8
20240518003632 63 202 2.6 2.6 0.00 0.20 0.20 86 1001.6
20240518003130 63 218 1.7 1.7 0.00 0.20 0.20 87 1001.2
20240518002629 63 198 1.7 1.7 0.00 0.20 0.20 87 1001.3
20240518002130 63 209 1.7 2.6 0.07 0.20 0.20 88 1000.8
20240518001629 62 204 3.5 4.3 0.18 0.20 0.20 91 1000.6
20240518001127 61 197 1.7 1.7 0.11 0.18 0.18 92 1000.6
20240518000625 62 177 1.7 1.7 0.07 0.18 0.18 93 1001.6
20240518000125 62 205 0.0 0.9 0.00 0.16 0.16 93 1001.8
20240517235624 62 211 0.9 0.9 0.04 0.16 0.16 93 1001.5
20240517235123 62 207 0.9 0.9 0.16 0.16 0.16 92 1001.7
20240517234622 62 208 1.7 1.7 0.42 0.16 0.16 91 1001.9
20240517234121 62 197 0.0 0.9 0.61 0.14 0.14 90 1001.7
20240517233619 63 184 0.9 1.7 0.54 0.10 0.10 86 1002.0
20240517233119 65 296 3.5 4.3 0.23 0.05 0.05 80 1002.1
20240517232617 66 219 3.5 4.3 0.00 0.01 0.01 74 1001.9
20240517232116 69 301 3.5 4.3 0.00 0.01 0.01 68 1001.2
20240517231615 73 281 1.7 1.7 0.00 0.01 0.01 61 1000.5
20240517231114 73 238 0.9 0.9 0.00 0.01 0.01 58 1000.0
20240517230614 74 208 0.0 0.0 0.00 0.01 0.01 60 999.5
20240517230113 74 252 0.9 0.9 0.00 0.01 0.01 54 999.5
20240517225613 75 32 0.9 0.9 0.00 0.01 0.01 57 999.5
20240517225110 77 217 0.0 0.0 0.00 0.01 0.01 53 999.8
20240517224609 77 218 0.0 0.0 0.00 0.01 0.01 50 999.6
20240517224107 78 220 0.0 0.0 0.00 0.01 0.01 47 999.8
20240517223606 79 228 0.9 0.9 0.00 0.01 0.01 45 999.4
20240517223105 80 222 1.7 1.7 0.00 0.01 0.01 43 999.2
20240517222603 80 215 1.7 2.6 0.00 0.01 0.01 43 999.1
20240517222102 80 216 3.5 4.3 0.00 0.01 0.01 42 999.1
20240517221601 80 206 1.7 1.7 0.00 0.01 0.01 43 999.3
20240517221059 80 220 1.7 2.6 0.00 0.01 0.01 44 999.3
20240517220558 81 206 0.9 0.9 0.00 0.01 0.01 43 999.2
20240517220055 81 186 3.5 4.3 0.00 0.01 0.01 42 999.2
20240517215553 81 198 2.6 2.6 0.00 0.01 0.01 43 999.4
20240517215051 81 217 2.6 2.6 0.00 0.01 0.01 42 999.5
20240517214551 81 195 0.9 1.7 0.00 0.01 0.01 44 999.5
20240517214050 80 199 0.9 1.7 0.00 0.01 0.01 44 999.8
20240517213549 80 210 2.6 2.6 0.00 0.01 0.01 44 999.6
20240517213048 80 218 0.9 0.9 0.00 0.01 0.01 47 999.8
20240517212547 78 200 1.7 1.7 0.00 0.01 0.01 50 999.7
20240517212045 77 206 1.7 1.7 0.07 0.01 0.01 56 999.8
20240517211545 76 207 0.9 0.9 0.07 0.01 0.01 58 1000.1
20240517211044 77 220 2.6 2.6 0.00 0.00 0.00 57 1000.0
20240517210544 79 220 0.9 0.9 0.00 0.00 0.00 53 1000.1
20240517210043 80 191 0.9 1.7 0.00 0.00 0.00 44 999.9
20240517205541 81 204 5.2 6.1 0.00 0.00 0.00 43 999.9
20240517205039 83 212 2.6 4.3 0.00 0.00 0.00 43 999.8
20240517204538 83 194 0.9 0.9 0.00 0.00 0.00 45 999.8
20240517204037 82 220 2.6 2.6 0.00 0.00 0.00 42 999.9
20240517203536 83 201 1.7 1.7 0.00 0.00 0.00 43 999.9
20240517203035 82 230 1.7 2.6 0.00 0.00 0.00 44 999.8
20240517202534 82 211 0.9 1.7 0.00 0.00 0.00 45 999.9
20240517202033 82 194 1.7 1.7 0.00 0.00 0.00 47 1000.0
20240517201531 82 228 1.7 2.6 0.00 0.00 0.00 44 1000.0
20240517201029 82 187 2.6 2.6 0.00 0.00 0.00 44 1000.0
20240517200529 82 210 1.7 1.7 0.00 0.00 0.00 45 1000.2
20240517200029 82 184 0.9 0.9 0.00 0.00 0.00 44 1000.4
20240517195528 82 207 2.6 4.3 0.00 0.00 0.00 44 1000.3
20240517195027 81 218 2.6 2.6 0.00 0.00 0.00 45 1000.4
20240517194526 82 240 2.6 2.6 0.00 0.00 0.00 43 1000.3
20240517194025 82 197 0.9 0.9 0.00 0.00 0.00 46 1000.4